Location: Hertford
(51.8000°N, 0.0667°W)
Time: 02:19:12
(UTC+00:00)

Cosmos 1707 - Pass Details

Date: 18 September 2020
Orbit: 515 x 530 km, 82.5° (Epoch: 30 October)

Event Time Altitude Azimuth Distance (km) Brightness Sun altitude
Rises 19:14:26 0° 349° (N) 2,658 6.7 -11.1°
Reaches altitude 10° 19:16:35 10° 351° (N) 1,763 5.8 -11.4°
Maximum altitude 19:20:27 83° 78° (ENE) 528 2.6 -12.0°
Drops below altitude 10° 19:24:17 10° 168° (SSE) 1,742 5.1 -12.5°
Enters shadow 19:25:53 - 169° (S) 2,408 5.8 -12.8°
